Weather History for KDUA - March, 2013

Change the Weather History Date:

Tuesday, March 5, 2013

  Actual Average (KADM) Record (KADM)
Temperature  
Mean Temperature 48 °F -  
Max Temperature 55 °F 57 °F 87 °F (2009)
Min Temperature 41 °F 38 °F 17 °F (2015)
Degree Days  
Heating Degree Days 17    
Moisture  
Dew Point 25 °F    
Average Humidity 45    
Maximum Humidity 76    
Minimum Humidity 25    
Precipitation  
Precipitation 0.00 in - - ()
Sea Level Pressure  
Sea Level Pressure 30.25 in    
Wind  
Wind Speed 18 mph (NNW)    
Max Wind Speed 30 mph    
Max Gust Speed 47 mph    
Visibility 10 miles    
Events      
Averages and records for this station are not official NWS values.
T = Trace of Precipitation, MM = Missing Value Source: NWS Daily Summary

Daily Weather History Graph

Daily Weather History Graph

Search for Another Location

Airport or City:

Trip Planner

Search our weather history database for the weather conditions in past years. The results will help you decide how hot, cold, wet, or windy it might be!

Date:

Astronomy

Mar. 05, 2013 Rise Set
Actual Time 6:48 AM CST 6:25 PM CST
Civil Twilight 6:23 AM CST 6:50 PM CST
Nautical Twilight 5:54 AM CST 7:19 PM CST
Astronomical Twilight 5:25 AM CST 7:48 PM CST
Moon 1:50 AM CST 12:17 PM CST
Length of Visible Light 12h 26m
Length of Day
11h 36m
Last Quarter, 40% of the Moon is Illuminated
Mar 5
Last Quarter
Mar 11
New
Mar 19
First Quarter
Mar 27
Full
Apr 2
Last Quarter

Hourly Weather History & Observations

Time (CST) Temp. Windchill Dew Point Humidity Pressure Visibility Wind Dir Wind Speed Gust Speed Precip Events Conditions
12:15 AM 50.0 °F - 41.0 °F 71% 29.88 in 10.0 mi NNW 19.6 mph 31.1 mph N/A   Clear
12:35 AM 48.2 °F - 41.0 °F 76% 29.89 in 10.0 mi NNW 20.7 mph 35.7 mph N/A   Clear
12:55 AM 48.2 °F - 39.2 °F 71% 29.91 in 10.0 mi NNW 21.9 mph 35.7 mph N/A   Scattered Clouds
1:15 AM 46.4 °F 37.7 °F 37.4 °F 71% 29.91 in 10.0 mi North 26.5 mph 38.0 mph N/A   Scattered Clouds
1:55 AM 46.4 °F 37.5 °F 35.6 °F 66% 29.99 in 10.0 mi NNW 27.6 mph 38.0 mph N/A   Scattered Clouds
2:35 AM 44.6 °F 35.7 °F 35.6 °F 71% 30.02 in 10.0 mi NNW 24.2 mph 29.9 mph N/A   Scattered Clouds
2:55 AM 46.4 °F 37.5 °F 33.8 °F 62% 30.05 in 10.0 mi NNW 27.6 mph 34.5 mph N/A   Scattered Clouds
3:15 AM 46.4 °F 38.7 °F 33.8 °F 62% 30.04 in 10.0 mi NNW 20.7 mph 35.7 mph N/A   Scattered Clouds
3:35 AM 44.6 °F 34.7 °F 33.8 °F 66% 30.07 in 10.0 mi NNW 29.9 mph 47.2 mph N/A   Scattered Clouds
3:55 AM 44.6 °F 36.6 °F 35.6 °F 71% 30.08 in 10.0 mi NNW 19.6 mph 25.3 mph N/A   Scattered Clouds
4:15 AM 44.6 °F 35.7 °F 35.6 °F 71% 30.10 in 10.0 mi NNW 24.2 mph 31.1 mph N/A   Scattered Clouds
4:55 AM 44.6 °F 37.2 °F 33.8 °F 66% 30.13 in 10.0 mi NNW 17.3 mph 29.9 mph N/A   Clear
5:15 AM 42.8 °F 33.5 °F 32.0 °F 66% 30.13 in 10.0 mi NNW 23.0 mph 32.2 mph N/A   Clear
5:35 AM 42.8 °F 34.8 °F 32.0 °F 66% 30.16 in 10.0 mi NNW 17.3 mph 23.0 mph N/A   Clear
5:55 AM 42.8 °F 35.8 °F 32.0 °F 66% 30.18 in 10.0 mi NNW 13.8 mph 25.3 mph N/A   Clear
6:15 AM 42.8 °F 35.8 °F 32.0 °F 66% 30.19 in 10.0 mi NNW 13.8 mph 23.0 mph N/A   Clear
6:55 AM 41.0 °F 33.9 °F 32.0 °F 70% 30.22 in 10.0 mi NNW 12.7 mph 18.4 mph N/A   Clear
7:15 AM 41.0 °F 33.9 °F 32.0 °F 70% 30.23 in 10.0 mi NNW 12.7 mph 17.3 mph N/A   Clear
7:35 AM 41.0 °F 34.3 °F 30.2 °F 65% 30.25 in 10.0 mi NNW 11.5 mph 23.0 mph N/A   Clear
7:55 AM 42.8 °F 35.1 °F 30.2 °F 61% 30.25 in 10.0 mi NNW 16.1 mph 24.2 mph N/A   Clear
8:15 AM 42.8 °F 33.8 °F 26.6 °F 53% 30.26 in 10.0 mi NNW 21.9 mph 26.5 mph N/A   Clear
8:35 AM 42.8 °F 33.3 °F 23.0 °F 46% 30.27 in 10.0 mi NNW 24.2 mph 29.9 mph N/A   Clear
8:55 AM 44.6 °F 35.1 °F 23.0 °F 43% 30.27 in 10.0 mi NNW 27.6 mph 33.4 mph N/A   Clear
9:15 AM 44.6 °F 36.1 °F 23.0 °F 43% 30.29 in 10.0 mi NNW 21.9 mph 27.6 mph N/A   Clear
9:35 AM 44.6 °F 36.1 °F 21.2 °F 39% 30.30 in 10.0 mi NNW 21.9 mph 27.6 mph N/A   Clear
9:55 AM 44.6 °F 36.1 °F 19.4 °F 37% 30.32 in 10.0 mi NNW 21.9 mph 33.4 mph N/A   Clear
10:15 AM 46.4 °F 38.5 °F 19.4 °F 34% 30.32 in 10.0 mi NNW 21.9 mph 31.1 mph N/A   Clear
10:35 AM 46.4 °F 38.7 °F 19.4 °F 34% 30.32 in 10.0 mi NNW 20.7 mph 26.5 mph N/A   Clear
10:55 AM 46.4 °F 39.2 °F 17.6 °F 32% 30.33 in 10.0 mi NNW 18.4 mph 28.8 mph N/A   Clear
11:15 AM 46.4 °F 39.0 °F 17.6 °F 32% 30.33 in 10.0 mi NNW 19.6 mph 25.3 mph N/A   Clear
11:35 AM 48.2 °F - 17.6 °F 30% 30.33 in 10.0 mi NNW 17.3 mph 25.3 mph N/A   Clear
11:55 AM 50.0 °F - 19.4 °F 30% 30.34 in 10.0 mi NNW 20.7 mph 26.5 mph N/A   Clear
12:15 PM 50.0 °F - 19.4 °F 30% 30.34 in 10.0 mi NW 19.6 mph 24.2 mph N/A   Clear
12:35 PM 51.8 °F - 19.4 °F 28% 30.33 in 10.0 mi NNW 18.4 mph 24.2 mph N/A   Clear
12:55 PM 51.8 °F - 19.4 °F 28% 30.32 in 10.0 mi NNW 20.7 mph 28.8 mph N/A   Clear
1:15 PM 51.8 °F - 19.4 °F 28% 30.32 in 10.0 mi NW 20.7 mph 28.8 mph N/A   Clear
1:35 PM 51.8 °F - 19.4 °F 28% 30.31 in 10.0 mi NNW 17.3 mph 31.1 mph N/A   Clear
1:55 PM 53.6 °F - 19.4 °F 26% 30.30 in 10.0 mi NNW 18.4 mph 26.5 mph N/A   Clear
2:15 PM 53.6 °F - 19.4 °F 26% 30.30 in 10.0 mi NNW 15.0 mph 25.3 mph N/A   Clear
2:35 PM 53.6 °F - 19.4 °F 26% 30.29 in 10.0 mi NNW 18.4 mph 25.3 mph N/A   Clear
2:55 PM 53.6 °F - 19.4 °F 26% 30.29 in 10.0 mi NNW 15.0 mph 25.3 mph N/A   Clear
3:15 PM 53.6 °F - 19.4 °F 26% 30.29 in 10.0 mi NW 13.8 mph 23.0 mph N/A   Clear
3:35 PM 55.4 °F - 19.4 °F 25% 30.28 in 10.0 mi NNW 15.0 mph 21.9 mph N/A   Clear
3:55 PM 55.4 °F - 19.4 °F 25% 30.28 in 10.0 mi NNW 13.8 mph - N/A   Clear
4:15 PM 55.4 °F - 19.4 °F 25% 30.28 in 10.0 mi NNW 16.1 mph 23.0 mph N/A   Clear
4:35 PM 55.4 °F - 19.4 °F 25% 30.28 in 10.0 mi NW 13.8 mph 21.9 mph N/A   Clear
4:55 PM 55.4 °F - 19.4 °F 25% 30.28 in 10.0 mi NW 13.8 mph 19.6 mph N/A   Clear
5:15 PM 53.6 °F - 19.4 °F 26% 30.29 in 10.0 mi NNW 12.7 mph 18.4 mph N/A   Clear
5:35 PM 53.6 °F - 19.4 °F 26% 30.29 in 10.0 mi NW 13.8 mph 19.6 mph N/A   Clear
5:55 PM 51.8 °F - 19.4 °F 28% 30.30 in 10.0 mi NW 11.5 mph - N/A   Clear
6:15 PM 50.0 °F - 19.4 °F 30% 30.30 in 10.0 mi NW 11.5 mph - N/A   Clear
6:35 PM 50.0 °F - 21.2 °F 32% 30.32 in 10.0 mi NW 10.4 mph - N/A   Clear
6:55 PM 46.4 °F 42.4 °F 21.2 °F 37% 30.32 in 10.0 mi NW 8.1 mph - N/A   Clear
7:15 PM 46.4 °F 42.9 °F 21.2 °F 37% 30.33 in 10.0 mi NW 6.9 mph - N/A   Clear
7:35 PM 46.4 °F 42.4 °F 21.2 °F 37% 30.33 in 10.0 mi NW 8.1 mph - N/A   Clear
7:55 PM 44.6 °F 40.2 °F 21.2 °F 39% 30.34 in 10.0 mi NW 8.1 mph - N/A   Clear
8:15 PM 44.6 °F 40.7 °F 21.2 °F 39% 30.34 in 10.0 mi WNW 6.9 mph - N/A   Clear
8:35 PM 44.6 °F 39.7 °F 21.2 °F 39% 30.35 in 10.0 mi NW 9.2 mph - N/A   Clear
8:55 PM 44.6 °F 40.2 °F 23.0 °F 43% 30.35 in 10.0 mi NW 8.1 mph - N/A   Clear
9:15 PM 42.8 °F 38.0 °F 23.0 °F 46% 30.35 in 10.0 mi NW 8.1 mph - N/A   Clear
9:35 PM 42.8 °F 38.0 °F 23.0 °F 46% 30.36 in 10.0 mi NW 8.1 mph - N/A   Clear
9:55 PM 42.8 °F 37.0 °F 23.0 °F 46% 30.36 in 10.0 mi NNW 10.4 mph - N/A   Clear
10:15 PM 41.0 °F 35.8 °F 23.0 °F 49% 30.36 in 10.0 mi NNW 8.1 mph - N/A   Clear
10:35 PM 41.0 °F 34.7 °F 23.0 °F 49% 30.37 in 10.0 mi NNW 10.4 mph - N/A   Clear
10:55 PM 41.0 °F 35.8 °F 23.0 °F 49% 30.37 in 10.0 mi NNW 8.1 mph - N/A   Clear
11:15 PM 41.0 °F 35.2 °F 23.0 °F 49% 30.37 in 10.0 mi NNW 9.2 mph - N/A   Clear
11:35 PM 41.0 °F 35.2 °F 23.0 °F 49% 30.37 in 10.0 mi NNW 9.2 mph - N/A   Clear
11:55 PM 41.0 °F 35.8 °F 24.8 °F 53% 30.38 in 10.0 mi NNW 8.1 mph - N/A   Clear